Simultaneous Nadir Overpasses (SNOs) Predictions

Prediction of SNOs between AQUA and NPP Satellite Orbit:

Table of predicted SNOs for the next 14.0 days since TLE Epoch: 3/8/2025
Index Date (AQUA) Time (AQUA) Lat,Lon (AQUA) SZA (AQUA ) Date (NPP) Time (NPP) Lat,Lon (NPP) SZA (NPP ) Distance(km) Time Diff (sec)
1 03/09/2025 13:49:19 81.30, -96.10 91.43 03/09/2025 13:49:29 81.30, -96.10 91.42 0.73 10
2 03/11/2025 23:21:15 81.30, 120.96 90.47 03/11/2025 23:20:22 81.30, 121.02 90.49 1.28 53
3 03/12/2025 00:10:35 -81.29, -71.58 89.52 03/12/2025 00:11:06 -81.30, -71.42 89.56 2.74 31
4 03/14/2025 09:42:29 -81.30, 145.76 90.52 03/14/2025 09:41:59 -81.30, 145.64 90.49 2.14 30
5 03/14/2025 10:31:48 81.29, -46.92 89.51 03/14/2025 10:32:44 81.30, -46.98 89.49 1.40 56
6 03/16/2025 20:03:41 81.29, 170.30 88.53 03/16/2025 20:03:36 81.30, 170.40 88.52 1.80 5
7 03/19/2025 05:35:33 81.29, 27.40 87.55 03/19/2025 05:34:29 81.30, 27.33 87.61 1.33 64
8 03/19/2025 06:24:52 -81.30,-164.73 92.49 03/19/2025 06:25:12 -81.30,-164.69 92.51 1.02 20
9 03/21/2025 15:56:43 -81.30, 52.27 93.45 03/21/2025 15:56:05 -81.30, 52.19 93.41 1.49 38



Historial Predications of SNOs between AQUA and NPP
